Weather History for Du Bois, PA

Change the Weather History Date:

Thursday, January 30, 2014

  Actual Average Record
Temperature  
Mean Temperature 16 °F 24 °F  
Max Temperature 30 °F 31 °F 59 °F (2013)
Min Temperature 1 °F 17 °F -10 °F (1965)
Degree Days  
Heating Degree Days 49 41  
Month to date heating degree days 1381 1243  
Since 1 July heating degree days 3868 3905  
Cooling Degree Days 0 0  
Month to date cooling degree days 0 0  
Year to date cooling degree days 0 0  
Moisture  
Dew Point -4 °F    
Average Humidity 44    
Maximum Humidity 69    
Minimum Humidity 19    
Precipitation  
Precipitation 0.00 in 0.09 in 1.20 in (1969)
Month to date precipitation 1.76 3.00  
Sea Level Pressure  
Sea Level Pressure 30.20 in    
Wind  
Wind Speed 7 mph (South)    
Max Wind Speed 14 mph    
Max Gust Speed 21 mph    
Visibility 10 miles    
Events      
T = Trace of Precipitation, MM = Missing Value Source: NWS Daily Summary

Daily Weather History Graph

Daily Weather History Graph

Search for Another Location

Airport:

Trip Planner

Search our weather history database for the weather conditions in past years. The results will help you decide how hot, cold, wet, or windy it might be!

Date:

Astronomy

Jan. 30, 2014 Rise Set
Actual Time 7:28 AM EST 5:29 PM EST
Civil Twilight 6:59 AM EST 5:59 PM EST
Nautical Twilight 6:26 AM EST 6:32 PM EST
Astronomical Twilight 5:53 AM EST 7:04 PM EST
Moon 6:52 AM EST (1/30) 5:40 PM EST (1/30)
Length of Visible Light 10h 59m
Length of Day
10h 01m
Waning Crescent, 0% of the Moon is Illuminated
Jan 30
Waning Crescent
Jan 30
New
Feb 6
First Quarter
Feb 14
Full
Feb 22
Last Quarter

Hourly Weather History & Observations

Time (EST) Temp. Windchill Dew Point Humidity Pressure Visibility Wind Dir Wind Speed Gust Speed Precip Events Conditions
12:56 AM 5.0 °F -4.1 °F -5.1 °F 63% 30.32 in 10.0 mi SW 4.6 mph - N/A   Clear
1:56 AM 3.9 °F -5.3 °F -6.0 °F 64% 30.32 in 10.0 mi SW 4.6 mph - N/A   Clear
2:56 AM 3.0 °F -6.4 °F -7.1 °F 63% 30.32 in 10.0 mi SW 4.6 mph - N/A   Clear
3:56 AM 3.9 °F -8.2 °F -7.1 °F 60% 30.30 in 10.0 mi SW 6.9 mph - N/A   Clear
4:56 AM 1.0 °F -10.3 °F -7.1 °F 69% 30.31 in 10.0 mi SW 5.8 mph - N/A   Clear
5:56 AM 5.0 °F -2.1 °F -5.1 °F 63% 30.32 in 10.0 mi South 3.5 mph - N/A   Clear
6:56 AM 3.0 °F -8.0 °F -7.1 °F 63% 30.35 in 10.0 mi SSW 5.8 mph - N/A   Clear
7:56 AM 6.1 °F -0.9 °F -6.0 °F 58% 30.35 in 10.0 mi SSW 3.5 mph - N/A   Clear
8:56 AM 9.0 °F 0.6 °F -6.0 °F 51% 30.35 in 10.0 mi Variable 4.6 mph - N/A   Clear
9:56 AM 12.9 °F 2.6 °F -4.0 °F 47% 30.34 in 10.0 mi SSW 6.9 mph - N/A   Clear
10:56 AM 16.0 °F 7.4 °F -2.9 °F 43% 30.32 in 10.0 mi South 5.8 mph - N/A   Clear
11:56 AM 19.9 °F 11.1 °F -2.9 °F 37% 30.27 in 10.0 mi Variable 6.9 mph - N/A   Clear
12:56 PM 23.0 °F 18.4 °F -4.0 °F 31% 30.25 in 10.0 mi Variable 3.5 mph - N/A   Clear
1:56 PM 26.1 °F 16.2 °F -5.1 °F 26% 30.17 in 10.0 mi South 10.4 mph - N/A   Clear
2:56 PM 28.9 °F 21.1 °F -6.0 °F 22% 30.16 in 10.0 mi SSE 8.1 mph - N/A   Clear
3:56 PM 30.0 °F 21.7 °F -8.0 °F 19% 30.12 in 10.0 mi SSE 9.2 mph 16.1 mph N/A   Clear
4:56 PM 28.0 °F 19.3 °F -0.9 °F 29% 30.09 in 10.0 mi SSE 9.2 mph 17.3 mph N/A   Clear
5:56 PM 25.0 °F 17.1 °F -2.0 °F 31% 30.10 in 10.0 mi SE 6.9 mph - N/A   Clear
6:56 PM 25.0 °F 14.8 °F -0.9 °F 33% 30.07 in 10.0 mi SE 10.4 mph - N/A   Clear
7:56 PM 24.1 °F 13.7 °F -0.0 °F 35% 30.05 in 10.0 mi SE 10.4 mph 17.3 mph N/A   Clear
8:56 PM 23.0 °F 13.1 °F 1.0 °F 39% 30.04 in 10.0 mi SE 9.2 mph - N/A   Clear
9:56 PM 23.0 °F 10.6 °F 1.9 °F 40% 29.98 in 10.0 mi SE 13.8 mph 19.6 mph N/A   Clear
10:56 PM 24.1 °F 17.0 °F 1.9 °F 38% 30.00 in 10.0 mi South 5.8 mph - N/A   Clear
11:56 PM 25.0 °F 19.3 °F 1.9 °F 37% 29.99 in 10.0 mi South 4.6 mph - N/A   Overcast